TimeCDT,TemperatureF,Dew PointF,Humidity,Sea Level PressureIn,VisibilityMPH,Wind Direction,Wind SpeedMPH,Gust SpeedMPH,PrecipitationIn,Events,Conditions,WindDirDegrees,DateUTC
12:53 AM,78.1,73.0,84,29.88,10.0,SE,6.9,-,N/A,,Scattered Clouds,140,2013-05-30 05:53:00
1:53 AM,78.1,73.0,84,29.87,10.0,SE,10.4,-,N/A,,Mostly Cloudy,140,2013-05-30 06:53:00
2:53 AM,78.1,72.0,81,29.85,10.0,SSE,9.2,-,N/A,,Scattered Clouds,160,2013-05-30 07:53:00
3:53 AM,78.1,73.0,84,29.85,10.0,SSE,9.2,-,N/A,,Scattered Clouds,150,2013-05-30 08:53:00
4:53 AM,78.1,72.0,81,29.85,10.0,SSE,8.1,-,N/A,,Scattered Clouds,150,2013-05-30 09:53:00
5:53 AM,77.0,72.0,84,29.85,10.0,SSE,9.2,-,N/A,,Scattered Clouds,150,2013-05-30 10:53:00
6:53 AM,77.0,72.0,84,29.86,10.0,SSE,4.6,-,N/A,,Scattered Clouds,150,2013-05-30 11:53:00
7:53 AM,79.0,73.0,82,29.87,9.0,SSE,10.4,-,N/A,,Scattered Clouds,150,2013-05-30 12:53:00
8:11 AM,78.8,73.4,83,29.86,10.0,SSE,10.4,16.1,N/A,,Mostly Cloudy,150,2013-05-30 13:11:00
8:53 AM,81.0,73.0,77,29.88,10.0,SSE,15.0,21.9,N/A,,Scattered Clouds,160,2013-05-30 13:53:00
9:53 AM,82.0,72.0,71,29.89,10.0,South,15.0,23.0,N/A,,Scattered Clouds,180,2013-05-30 14:53:00
10:53 AM,86.0,72.0,63,29.89,10.0,South,11.5,23.0,N/A,,Mostly Cloudy,170,2013-05-30 15:53:00
11:44 AM,84.2,71.6,66,29.89,10.0,SSE,12.7,21.9,0.00,,Mostly Cloudy,160,2013-05-30 16:44:00
11:53 AM,86.0,72.0,63,29.90,10.0,SSE,18.4,24.2,0.00,,Mostly Cloudy,150,2013-05-30 16:53:00
11:59 AM,87.8,73.4,62,29.88,10.0,SSE,10.4,25.3,N/A,,Mostly Cloudy,150,2013-05-30 16:59:00
12:53 PM,84.9,73.0,67,29.90,9.0,SSE,11.5,18.4,0.01,Rain,Rain,160,2013-05-30 17:53:00
1:53 PM,84.9,73.0,67,29.89,10.0,SE,15.0,20.7,0.00,,Mostly Cloudy,130,2013-05-30 18:53:00
2:53 PM,86.0,73.0,65,29.87,10.0,SSE,15.0,23.0,N/A,,Mostly Cloudy,150,2013-05-30 19:53:00
3:53 PM,86.0,73.0,65,29.86,10.0,SSE,11.5,23.0,N/A,,Mostly Cloudy,150,2013-05-30 20:53:00
4:53 PM,87.1,73.9,65,29.84,10.0,SSE,13.8,21.9,N/A,,Mostly Cloudy,150,2013-05-30 21:53:00
5:06 PM,84.2,73.4,70,29.83,10.0,SSE,15.0,23.0,N/A,,Mostly Cloudy,150,2013-05-30 22:06:00
5:53 PM,84.9,73.0,67,29.83,10.0,SSE,16.1,25.3,N/A,,Mostly Cloudy,150,2013-05-30 22:53:00
6:53 PM,84.0,73.0,69,29.83,10.0,SSE,13.8,23.0,N/A,,Scattered Clouds,150,2013-05-30 23:53:00
7:53 PM,82.0,73.0,74,29.84,10.0,SSE,13.8,19.6,N/A,,Scattered Clouds,150,2013-05-31 00:53:00
8:53 PM,81.0,73.9,79,29.85,10.0,SE,8.1,-,N/A,,Mostly Cloudy,140,2013-05-31 01:53:00
9:07 PM,80.6,73.4,79,29.84,10.0,SSE,9.2,17.3,N/A,,Mostly Cloudy,150,2013-05-31 02:07:00
9:53 PM,81.0,75.0,82,29.87,10.0,SE,9.2,-,N/A,,Overcast,140,2013-05-31 02:53:00
10:40 PM,80.6,75.2,84,29.88,10.0,SSE,8.1,-,N/A,,Mostly Cloudy,160,2013-05-31 03:40:00
10:53 PM,80.1,75.0,85,29.89,10.0,SSE,9.2,-,N/A,,Mostly Cloudy,160,2013-05-31 03:53:00
11:34 PM,80.6,75.2,84,29.88,10.0,SSE,8.1,-,N/A,,Mostly Cloudy,150,2013-05-31 04:34:00
11:53 PM,80.1,75.0,85,29.90,10.0,SSE,6.9,-,N/A,,Mostly Cloudy,150,2013-05-31 04:53:00